Miscellaneous Local Product
Issued by NWS North Platte, NE

Home | Current Version | Previous Version | Text Only | Print | Product List | Glossary On
Versions: 1 2 3 4 5 6 7 8 9 10 11 12 13 14 15 16 17 18 19 20 21 22 23 24 25 26 27 28 29 30 31 32 33 34 35 36 37 38 39 40 41 42 43 44 45 46 47 48 49 50
000
AXUS43 KLBF 311010
MISLBF


WESTERN AND NORTH CENTRAL NEBRASKA HOURLY WEATHER ROUNDUP
NATIONAL WEATHER SERVICE NORTH PLATTE NE
500 AM CDT THU JUL 31 2014

***STATIONS NOT REPORTING VARIABLES SUCH AS SKY/WEATHER OR
PRESSURE ARE PROVIDED BY THE NEBRASKA DEPARTMENT OF
ROADS...RAWS...AND APRS NETWORKS...AND ARE NOT UNDER
NATIONAL WEATHER SERVICE QUALITY CONTROL***

...OBSERVATIONS IN AND NEAR THE EASTERN PANHANDLE OF NEBRASKA...

CITY           SKY/WX    TMP DP  RH WIND       PRES   REMARKS
PINE RIDGE     PTCLDY    52  48  86 CALM      30.17R
CHADRON        CLEAR     54  48  80 CALM      30.18R
ALLIANCE       PTCLDY    52  50  93 SW7       30.19F
SIDNEY         MOCLDY    54  52  93 W7        30.24R
WHITECLAY        N/A     46  43  89 E3          N/A
RUSHVILLE        N/A     55  53  92 W5          N/A
GORDON           N/A     63  51  64 N8          N/A
CRESCENT LAKE    N/A     59  58  95 SW3         N/A
LISCO            N/A     60  56  87 CALM        N/A
BIG SPRINGS      N/A     60  58  93 W3          N/A
$$

...OBSERVATIONS IN NORTH CENTRAL NEBRASKA...

CITY           SKY/WX    TMP DP  RH WIND       PRES   REMARKS
VALENTINE      CLEAR     57  49  74 W8        30.08S
THEDFORD       MOCLDY    64  59  83 SW8       30.13S
AINSWORTH      CLEAR     60  56  86 SW6       30.08S
O`NEILL        CLOUDY    63  59  87 SE9       30.08F
ORD            PTCLDY    60  55  83 S6        30.10F
BROKEN BOW     MOCLDY    55  54  96 CALM      30.12F
BROWNLEE         N/A     62  55  78 W6          N/A
SPRINGVIEW       N/A     56  52  88 CALM        N/A
DUNNING          N/A     62  61  97 CALM        N/A
ROSE             N/A     62  60  93 E6          N/A
NEWPORT          N/A     61  57  88 S6          N/A
SARGENT          N/A     58  56  92 CALM        N/A
COMSTOCK         N/A     64  60  87 S5          N/A
CHAMBERS         N/A     61  58  90 S7          N/A
EWING            N/A     62  57  84 S3          N/A
$$

...OBSERVATIONS IN SOUTHWEST NEBRASKA AND FAR NORTHEAST COLORADO...

CITY           SKY/WX    TMP DP  RH WIND       PRES   REMARKS
WRAY             N/A    N/A N/A N/A SW5       30.22F
HOLYOKE        FAIR      59  55  88 SW3       30.21S
IMPERIAL       CLOUDY    59  57  93 W7        30.19F
OGALLALA       MOCLDY    55  54  97 W6        30.18S
NORTH PLATTE   MOCLDY    55  54  96 NW5       30.15F FOG
MCCOOK         PTCLDY    60  58  92 W7        30.17S
LEXINGTON      MOCLDY    59  56  89 CALM      30.14F
PAXTON           N/A     60  57  91 CALM        N/A
SUTHERLAND       N/A     56  54  92 W6          N/A
BRADY            N/A     58  54  86 CALM        N/A
GOTHENBURG       N/A     61  53  75 CALM        N/A
CALLAWAY         N/A     56  55  96 CALM        N/A
$$

...SOME WEATHER OBSERVATIONS FROM AROUND THE REGION...

CITY           SKY/WX    TMP DP  RH WIND       PRES   REMARKS
DENVER         CLOUDY    58  56  93 E7        30.28F
LARAMIE        CLEAR     49  47  93 NE3       30.38S
CHEYENNE       CLEAR     51  48  89 W7        30.32S
SCOTTSBLUFF    PTCLDY    59  57  93 CALM      30.21S
RAPID CITY     CLEAR     58  48  69 NW10      30.16S
PIERRE         CLEAR     58  54  86 N6        30.05S
WINNER         FAIR      60  53  77 W7        30.04S
SIOUX FALLS    PTCLDY    55  53  93 CALM      30.09R
OMAHA          PTCLDY    62  56  80 SE3       30.11S
GRAND ISLAND   PTCLDY    60  54  80 W6        30.14S
KANSAS CITY    PTCLDY    60  56  86 N5        30.11R
WICHITA        PTCLDY    60  58  92 NW8       30.12R FOG
HAYS           CLEAR     57  52  82 CALM      30.16S
LIBERAL        CLEAR     57  52  82 NW5       30.22S
GOODLAND       PTCLDY    57  54  89 W7        30.23F
$$



USA.gov is the U.S. government's official web portal to all federal, state and local government web resources and services.